Flag for Austria Weather past 2 weeks in Kirchdorf an der Krems, Upper Austria, Austria

Now
55 °F

Fog.


Feels Like: 54 °F
Forecast: 53 / 67 °F
Wind: 6 mph from Southwest

Location: Kremsmuenster

Current Time: Sep 2, 2014 at 10:26:28 PM

Latest Report: Sep 2, 2014 at 9:00 PM


Visibility: N/A

Pressure: 30.14 "Hg

Humidity: 93%

Dew point: 53 °F

Location of Kirchdorf an der KremsLocation

Historic Weather in Kirchdorf an der Krems — Graph

°F

Kirchdorf an der Krems temperature yesterday

Maximum temperature yesterday: 58 °F (at 4:00 PM)
Minimum temperature yesterday: 52 °F (at 3:00 AM)
Average temperature yesterday: 55 °F

Past Weeks' High & Low Weather Summary

 TemperatureHumidityPressure
High75 °F (Aug 29, 4:00 PM)99% (Aug 31, 7:00 AM)30.16 "Hg (Aug 31, 7:00 AM)
Low46 °F (Aug 25, 5:00 AM)41% (Aug 25, 4:00 PM)29.72 "Hg (Aug 26, 4:00 PM)
Average60 °F81%30.01 "Hg
* Reported Aug 18 8:00 PM — Sep 2 8:00 PM, Kirchdorf an der Krems, Weather by CustomWeather, © 2014

Note: Actual official high and low records may vary slightly from our data, if they occured in-between our weather recording intervals... More about our weather records

Advertising

Kirchdorf an der Krems weather history for previous 24 hours

 ConditionsComfort  
Time TempWeatherWind HumidityBarometerVisibility
8:00 PM
Sep 2
55 °FLight rain. Low clouds.5 mph92%30.12 "Hg2 mi
7:00 PM56 °FFog.3 mph94%30.11 "HgN/A
6:00 PM56 °FFog.3 mph92%30.11 "HgN/A
5:00 PM56 °FRain. Low clouds.3 mph94%30.11 "Hg2 mi
4:00 PM56 °FFog.5 mph91%30.11 "HgN/A
3:00 PM56 °FFog.5 mph91%30.12 "HgN/A
2:00 PM55 °FCool.3 mph92%30.12 "HgN/A
1:00 PM56 °FFog.5 mph89%30.12 "HgN/A
12:00 PM56 °FFog.6 mph91%30.12 "HgN/A
11:00 AM55 °FRain. Low clouds.5 mph92%30.12 "Hg2 mi
10:00 AM55 °FFog.6 mph92%30.11 "HgN/A
9:00 AM54 °FSprinkles. Cloudy.6 mph91%30.11 "HgN/A
8:00 AM54 °FLight rain. Low clouds.6 mph91%30.11 "Hg2 mi
7:00 AM54 °FLight rain. Low clouds.6 mph92%30.11 "Hg2 mi
6:00 AM54 °FFog.6 mph92%30.10 "HgN/A
5:00 AM54 °FCool.6 mph91%30.10 "HgN/A
4:00 AM54 °FCool.6 mph92%30.11 "HgN/A
3:00 AM54 °FCool.5 mph93%30.11 "HgN/A
2:00 AM54 °FCool.6 mph91%30.13 "HgN/A
1:00 AM54 °FCool.5 mph92%30.11 "HgN/A
12:00 AM54 °FCool.6 mph94%30.12 "HgN/A
11:00 PM
Sep 1
54 °FCool.6 mph94%30.13 "HgN/A
10:00 PM55 °FCool.6 mph94%30.11 "HgN/A
Weather by CustomWeather, © 2014

See weather overviewHow to use our weather pages